Regional Weather Roundup
Issued by NWS Sioux Falls, SD

Home | Current Version | Previous Version | Graphics & Text | Print | Product List | Glossary Off
Versions: 1 2 3 4 5 6 7 8 9 10 11 12 13 14 15 16 17 18 19 20 21 22 23 24 25 26 27 28 29 30 31 32 33 34 35 36 37 38 39 40 41 42 43 44 45 46 47 48 49 50

000
ASUS43 KFSD 271910
RWRFSD

WEATHER ROUNDUP FOR SE SOUTH DAKOTA/SW MINNESOTA/NW IOWA
NATIONAL WEATHER SERVICE SIOUX FALLS SD
200 PM CDT WED AUG 27 2014

NOTE: "FAIR" INDICATES FEW OR NO CLOUDS BELOW 12,000 FEET WITH NO
SIGNIFICANT WEATHER AND OR OBSTRUCTIONS TO VISIBILITY.


SDZ038>040-050-052>070-272000-
SOUTHEAST SOUTH DAKOTA

CITY           SKY/WX    TMP DP  RH WIND       PRES   REMARKS
CHAMBERLAIN    CLOUDY    77  66  69 SE15G21   30.09F
HURON          MOSUNNY   75  63  66 SE12      30.10F
MADISON        FAIR      73  64  73 SE8G16    30.14F
MITCHELL       PTSUNNY   77  66  68 SE13G20   30.10F
SIOUX FALLS    PTSUNNY   72  62  71 SE15      30.14F
WINNER         CLOUDY    72  66  81 SE10      30.10F
YANKTON        CLOUDY    68  64  88 SE9       30.13R
$$

MNZ071-072-080-081-089-090-097-098-272000-
SOUTHWEST MINNESOTA

CITY           SKY/WX    TMP DP  RH WIND       PRES   REMARKS
JACKSON        CLOUDY    72  57  60 SE6       30.20F
LUVERNE        PTSUNNY   72  61  68 SE12      30.16F
MARSHALL       NOT AVBL
MONTEVIDEO     MOSUNNY   75  61  60 S6        30.18F
PIPESTONE      PTSUNNY   72  61  68 S9G16     30.16F
TRACY          PTSUNNY   74  59  59 E7        30.17F
WINDOM         CLOUDY    70  55  60 SE8       30.19S
$$

IAZ001>003-012>014-020>022-031-032-NEZ013-014-SDZ071-272000-
NORTHWEST IOWA

CITY           SKY/WX    TMP DP  RH WIND       PRES   REMARKS
CHEROKEE       CLOUDY    71  65  81 E6        30.15F
DENISON        CLOUDY    68  68 100 E7        30.15R
ESTHERVILLE    CLOUDY    70  60  70 E7        30.19F
LE MARS        CLOUDY    72  64  78 VRB8G14   30.13F
ORANGE CITY    CLOUDY    72  61  68 SE9       30.15F
SHELDON        CLOUDY    70  63  78 SE10      30.15F
SIOUX CITY     CLOUDY    70  67  90 SE7       30.14R
SPENCER        CLOUDY    71  61  70 SE9       30.17F
STORM LAKE     CLOUDY    70  66  88 E9        30.16F
$$

ABBREVIATIONS USED IN REMARKS
   TC - TEMPERATURE IN CELSIUS
  WCI - WIND CHILL INDEX
   HX - HEAT INDEX
  VSB - VISIBILITY



USA.gov is the U.S. government's official web portal to all federal, state and local government web resources and services.